Location: Newark
(41.0400°S, 62.7845°W)
Time: 20:01:37
(UTC+00:00)

YUBILEINY - Visible Passes

Search period start: 21 January 2022 00:00
Search period end: 31 January 2022 00:00
Orbit: 1479 x 1508 km, 82.5° (Epoch: 21 January)

Date Brightness Start Highest point End Pass type
(mag) Time Alt. Az. Time Alt. Az. Time Alt. Az.
21 Jan ? 01:28:48 21° ENE 01:32:37 29° E 01:39:40 10° SSE visible
21 Jan ? 03:24:40 34° NW 03:28:44 61° WSW 03:37:27 10° S visible
21 Jan ? 05:24:54 10° WSW 05:27:39 12° SW 05:30:27 10° SW visible
22 Jan ? 00:39:50 10° ENE 00:43:54 14° ESE 00:47:58 10° SE visible
22 Jan ? 02:35:13 38° N 02:39:06 78° E 02:47:54 10° S visible
22 Jan ? 04:31:06 12° WNW 04:36:54 23° WSW 04:43:29 10° SSW visible
23 Jan ? 01:45:45 28° NE 01:49:49 44° E 01:57:56 10° SSE visible
23 Jan ? 03:41:37 23° NW 03:46:36 41° WSW 03:54:47 10° S visible
24 Jan ? 00:56:14 15° ENE 01:00:51 24° E 01:07:18 10° SSE visible
24 Jan ? 02:52:07 32° NNW 02:56:43 72° W 03:05:31 10° S visible
24 Jan ? 04:50:53 10° W 04:55:17 14° WSW 04:59:42 10° SSW visible
25 Jan ? 00:10:12 10° E 00:12:15 11° ESE 00:14:18 10° ESE visible
25 Jan ? 02:02:34 31° NNE 02:07:11 66° E 02:15:51 10° SSE visible
25 Jan ? 03:58:27 13° WNW 04:04:39 27° WSW 04:11:52 10° SSW visible
26 Jan ? 01:13:00 21° NE 01:17:59 37° E 01:25:44 10° SSE visible
26 Jan ? 03:08:52 22° NW 03:14:29 49° WSW 03:22:57 10° S visible
27 Jan ? 00:23:31 10° ENE 00:29:08 19° ESE 00:34:46 10° SE visible
27 Jan ? 02:19:15 27° N 02:24:43 85° W 02:33:34 10° S visible
27 Jan ? 04:17:29 10° W 04:22:57 18° WSW 04:28:28 10° SSW visible
28 Jan ? 01:29:36 22° NNE 01:35:17 56° E 01:43:46 10° SSE visible
28 Jan ? 03:25:27 12° NW 03:32:28 32° WSW 03:40:09 10° S visible
29 Jan ? 00:39:52 13° NE 00:46:12 31° E 00:53:28 10° SSE visible
29 Jan ? 02:35:44 18° NNW 02:42:25 58° WSW 02:51:05 10° S visible
29 Jan ? 04:39:44 10° WSW 04:41:29 11° SW 04:43:15 10° SW visible
29 Jan ? 23:52:52 10° ENE 23:57:27 16° ESE 00:02:02 10° SE visible
30 Jan ? 01:45:57 19° N 01:52:45 83° E 02:01:34 10° S visible
30 Jan ? 03:44:23 10° WNW 03:50:39 21° WSW 03:57:00 10° SSW visible
